• MPC Preparation (Info)

  • MPEC 2014-T12 : 2014 SE324

    The following Minor Planet Electronic Circular may be linked-to from your own Web pages, but must not otherwise be redistributed electronically.

    A form allowing access to any MPEC is at the bottom of this page.


    Read MPEC 2014-T11 Read MPEC 2014-T13


    M.P.E.C. 2014-T12                                Issued 2014 Oct. 2, 14:41 UT
    
         The Minor Planet Electronic Circulars contain information on unusual
             minor planets and routine data on comets.  They are published
       on behalf of Commission 20 of the International Astronomical Union by the
              Minor Planet Center, Smithsonian Astrophysical Observatory,
                              Cambridge, MA 02138, U.S.A.
    
                 Prepared using the Tamkin Foundation Computer Network
    
                                  MPC@CFA.HARVARD.EDU
                URL https://www.minorplanetcenter.net/    ISSN 1523-6714
    
                                      2014 SE324
    
    Observations:
         K14SW4E* C2014 09 30.32490 02 07 43.77 +09 38 48.2          21.5 VoET012691
         K14SW4E  C2014 09 30.34519 02 07 42.44 +09 38 22.0          21.4 VoET012691
         K14SW4E  C2014 09 30.36549 02 07 41.19 +09 37 56.4          21.1 VoET012691
         K14SW4E KC2014 09 30.49567 02 07 32.84 +09 35 06.6                oET012291
         K14SW4E KC2014 09 30.50075 02 07 32.56 +09 35 01.4                oET012291
         K14SW4E  C2014 10 01.25872602 06 51.08 +09 18 43.7          20.6 RtET012H01
         K14SW4E  C2014 10 01.26742402 06 50.52 +09 18 32.6          20.7 RtET012H01
         K14SW4E  C2014 10 01.27275702 06 50.18 +09 18 26.2          20.8 RtET012H01
         K14SW4E KC2014 10 01.29182 02 06 48.88 +09 18 02.5          20.5 RcET012711
         K14SW4E KC2014 10 01.30538 02 06 47.99 +09 17 46.0          20.4 RcET012711
         K14SW4E KC2014 10 01.31751 02 06 47.25 +09 17 31.7          20.4 RcET012711
         K14SW4E KC2014 10 01.38184 02 06 42.65 +09 16 04.3          20.6 VqET012H21
         K14SW4E HC2014 10 01.38918 02 06 42.19 +09 15 54.9                qET012H21
         K14SW4E HC2014 10 01.39651 02 06 41.76 +09 15 46.0                qET012H21
         K14SW4E  C2014 10 02.05367 02 06 04.06 +09 01 44.8          21.3 RtET012493
         K14SW4E  C2014 10 02.09362 02 06 01.40 +09 00 53.6          21.1 RtET012493
         K14SW4E  C2014 10 02.10623 02 06 00.55 +09 00 37.7          21.7 RtET012493
         K14SW4E KC2014 10 02.35345 02 05 46.35 +08 55 24.7          21.0 RoET012291
         K14SW4E KC2014 10 02.35504 02 05 46.25 +08 55 22.7          20.4 RoET012291
         K14SW4E  C2014 10 02.35717002 05 45.97 +08 55 19.2          21.9 RtET012H01
         K14SW4E KC2014 10 02.35904 02 05 45.95 +08 55 17.6          21.1 RoET012291
         K14SW4E  C2014 10 02.36049002 05 45.75 +08 55 14.9          21.7 RtET012H01
         K14SW4E  C2014 10 02.37382502 05 44.85 +08 54 57.9          21.0 RtET012H01
    
    Observer details:
    291 LPL/Spacewatch II.  Observers T. H. Bressi, R. S. McMillan.  1.8-m f/2.7
        reflector + CCD.
    493 Calar Alto.  Observers S. Hellmich, S. Mottola.  1.23-m f/8 reflector
        + CCD.
    691 Steward Observatory, Kitt Peak.  Observer T. H. Bressi.  0.9-m f/3
        reflector + CCD.
    711 McDonald Observatory.  Observer J. G. Ries.  Measurer K. Sarneczky.
        0.76-m reflector + CCD + prime-focus corrector.
    H01 Magdalena Ridge Observatory, Socorro.  Observer W. H. Ryan.  2.4-m f/8.9
        reflector + CCD.
    H21 Astronomical Research Observatory, Westfield.  Observer R. Holmes.
        Measurers L. Buzzi, S. Foglia, T. Vorobjov, T. Linder.  0.61-m f/4.0
        astrograph + CCD.
    
    Orbital elements:
    2014 SE324                                               Earth MOID = 0.1472 AU
    Epoch 2014 Dec. 9.0 TT = JDT 2457000.5                  MPC
    M  59.50931              (2000.0)            P               Q
    n   0.40141790     Peri.  120.49487     +0.59965904     +0.80015630
    a   1.8200007      Node   186.39478     -0.76754265     +0.57061662
    e   0.3831774      Incl.    6.49914     -0.22646703     +0.18478790
    P   2.46           H   21.8           G   0.15           U   8
    Residuals in seconds of arc
    140930 691  0.7-  0.3-    141001 711  0.4-  0.8-    141002 493  0.3-  0.3-
    140930 691  1.1-  0.4-    141001 711  0.4-  0.0     141002 291  0.1-  0.1+
    140930 691  0.2-  0.1+    141001 711  0.5+  1.2+    141002 291  0.0   0.2+
    140930 291  0.9-  0.7-    141001 H21  0.3-  0.1-    141002 H01  0.5-  0.1+
    140930 291  0.3-  0.8+    141001 H21  0.1-  0.0     141002 291  0.4-  0.1+
    141001 H01  0.3-  0.5-    141001 H21  0.5+  0.6+    141002 H01  0.4-  0.0
    141001 H01  0.3-  0.5-    141002 493  0.2-  0.4-    141002 H01  0.4-  0.0
    141001 H01  0.2-  0.1-    141002 493  0.1-  0.5-
    
    Ephemeris:
    2014 SE324               a,e,i = 1.82, 0.38, 6                   q = 1.1226
    Date    TT    R. A. (2000) Decl.     Delta      r     Elong.  Phase     V
    2014 09 02    02 12 41.1 +19 01 14   0.3457  1.2267   121.7    44.4    21.6
    ...
    2014 09 17    02 16 15.9 +14 24 55   0.3558  1.2891   137.2    32.0    21.5
    ...
    2014 09 25    02 12 10.4 +11 34 30   0.3674  1.3260   146.9    24.4    21.4
    ...
    2014 10 01    02 07 05.2 +09 24 28   0.3807  1.3549   154.5    18.6    21.3
    2014 10 02    02 06 07.2 +09 03 05   0.3834  1.3598   155.8    17.6    21.3
    2014 10 03    02 05 07.6 +08 41 53   0.3862  1.3647   157.1    16.6    21.3
    ...
    2014 10 09    01 58 46.7 +06 39 33   0.4061  1.3947   164.6    11.0    21.3
    ...
    2014 10 17    01 50 03.0 +04 16 18   0.4415  1.4356   172.4     5.3    21.2
    ...
    2014 11 01    01 36 49.8 +01 14 54   0.5375  1.5141   162.6    11.3    22.1
    
    A. U. Tomatic                (C) Copyright 2014 MPC           M.P.E.C. 2014-T12
    

    Read MPEC 2014-T11 Read MPEC 2014-T13


    MPEC number:

    Enter an MPEC number in one of the following forms:

    • 1997-B01 (the full form)
    • J97B01 (the packed version of the full form)
    • B01 (the abbreviated form)